Overview Statistics Trail Chart Weather Telemetry Raw packets
 

This is the latest recevied weather packets stored in our database for station/object FW0690. If no packets are shown the sender has not sent any weather packets the latest 10 day(s).

<< 2 3 4 5 6 7 8 >>
Time Temp. Humidity Pressure Rain* Wind** Luminosity Snow
1788539781 28.89° C 28% 1013.6 hPa - - 2 W/m² -
1788539421 28.89° C 27% 1013.6 hPa - - 2 W/m² -
1788539061 28.89° C 27% 1013.6 hPa - - 3 W/m² -
1788538701 29.44° C 27% 1013.6 hPa - - 4 W/m² -
1788538341 29.44° C 26% 1013.6 hPa - - 5 W/m² -
1788537981 29.44° C 26% 1013.6 hPa - - 7 W/m² -
1788537621 29.44° C 26% 1013.6 hPa - - 10 W/m² -
1788537261 29.44° C 26% 1013.6 hPa - - 9 W/m² -
1788536901 30° C 26% 1013.6 hPa - - 10 W/m² -
1788536541 30° C 25% 1013.5 hPa - - 12 W/m² -
1788536181 30° C 25% 1013.5 hPa - - 13 W/m² -
1788535821 30° C 25% 1013.5 hPa - - 13 W/m² -
1788535461 30° C 25% 1013.5 hPa - - 13 W/m² -
1788535101 30° C 25% 1013.4 hPa - - 16 W/m² -
1788534741 30° C 25% 1013.5 hPa - - 16 W/m² -
1788534381 30° C 25% 1013.5 hPa - - 17 W/m² -
1788533661 30.56° C 24% 1013.6 hPa - - 16 W/m² -
1788533301 30.56° C 24% 1013.6 hPa - - 19 W/m² -
1788532941 30.56° C 24% 1013.5 hPa - - 18 W/m² -
1788532581 31.11° C 23% 1013.7 hPa - - 18 W/m² -
1788532221 31.67° C 22% 1013.7 hPa - - 20 W/m² -
1788531861 31.67° C 22% 1013.7 hPa - - 22 W/m² -
1788531501 33.33° C 21% 1013.8 hPa - - 22 W/m² -
1788531141 34.44° C 20% 1013.8 hPa - - 274 W/m² -
1788530781 35° C 20% 1013.8 hPa - - 274 W/m² -

* Rain since midnight (hover to see other rain measurements)
** Current wind speed in m/s (hover to see current wind gust speed)